Погода в Сан Исидро де Эль Дженерал

Коста-Рика     9°22′22″N   83°42′03″W
темп.,
°C
ветер,
м/с
пор.,
м/с
влажн.,
%
обл.,
%
осадки,
мм/ч
давл.,
гПа
погр.,
м
9 августа, вт
вт900:00+22св119050 1.4 101126
03:00+21св119098 0.2 101039
06:00+21св1189100 0.3 101248
09:00+26ююз217626 0.0 1012555
12:00+26юз3278100 0.8 1011700
15:00+26юз2279100 2.8 1010645
18:00+24юз1193100 5.5 101162
21:00+23с0093100 1.4 101316
10 августа, ср
ср1000:00+22св1192100 2.3 101233
03:00+22всв1191100 0.0 101155
06:00+22св1189100 0.1 1012101
09:00+25ю2181100 0.1 1013548
12:00+26юз228498 2.1 1012546
15:00+24юз2289100 5.1 1011453
18:00+22в1195100 9.6 101256
21:00+22юв1194100 2.2 101457
11 августа, чт
чт1100:00+22ю119663 3.8 101373
03:00+22с019495 0.6 101194
06:00+22ссв109245 0.6 101277
09:00+24юз118999 0.1 1013342
12:00+26юз2279100 0.9 1012749
15:00+23з1195100 3.1 1011180
18:00+22ссв0195100 5.6 101259
21:00+22ссв0196100 4.8 101464
12 августа, пт
пт1200:00+21сз1198100 27.0 101389
03:00+20вюв1199100 23.6 101277
06:00+20в1299100 43.3 1014132
09:00+21сз1296100 11.2 1015139
12:00+22ссз1194100 13.1 1014159
15:00+22зсз1193100 0.6 1012143
18:00+21зюз0194100 0.7 101381
21:00+21ссв1192100 0.0 101575
13 августа, сб
сб1300:00+21с0091100 0.0 101489
03:00+21ссв1190100 0.0 101388
06:00+21ссв1187100 0.0 101380
09:00+25ююз117788 0.0 1015541
12:00+23юз2286100 0.3 1014431
15:00+25юз2273100 0.3 1012757
18:00+22юз1191100 0.4 101357
21:00+22св1193100 0.0 101556